Weather in Gamba

Gabon     2°43′14″S   10°01′01″E
temp.,
°C
wind,
m/s
gust,
m/s
humid.,
%
clouds,
%
prec.,
mm/h
press.,
hPa
HPBL,
m
20 january, thu
thu2001:00+25ssw0189100 0.0 1013125
04:00+24s1290100 1.4 101280
07:00+25ese1187100 3.3 1013104
10:00+26se228370 1.3 1013151
13:00+26sse3480100 2.0 1011443
16:00+27s347556 0.0 1009543
19:00+25s2485100 0.0 1010233
22:00+25s2386100 0.1 1012186
21 january, fri
fri2101:00+25se3589100 2.3 1012195
04:00+23se3592100 0.7 1011230
07:00+24se2493100 1.2 1012252
10:00+25se3486100 0.0 1013491
13:00+27sse657651 0.1 1011778
16:00+26s558014 0.2 1009655
19:00+25s3587100 0.3 1010374
22:00+25s2389100 0.0 1013275
22 january, sat
sat2201:00+25s4788100 0.0 1011399
04:00+25sse478754 0.0 1010509
07:00+25sse368973 0.1 1011488
10:00+27sse567769 0.2 1013783
13:00+28sse5674100 0.3 1011853
16:00+28sse457399 0.2 1009715
19:00+26sse4784100 0.3 1010278
22:00+25sse2487100 0.0 1012151
23 january, sun
sun2301:00+25sse2589100 0.3 1012272
04:00+25sse488899 0.0 1010485
07:00+25sse368788 0.0 1011443
10:00+27sse5673100 0.0 1012751
13:00+26sse4578100 0.0 1010683
16:00+28s447132 0.1 1008804
19:00+25s35855 0.1 1009289
22:00+25sse238846 0.0 1011216
24 january, mon
mon2401:00+25ssw228677 0.0 1011225
04:00+25ssw22856 0.0 1010236
07:00+25sse238577 0.0 1011320
10:00+26s228099 0.0 1013550
13:00+26sw2382100 0.1 1010411
16:00+26ssw1281100 0.0 1008319
19:00+25ssw238454 0.1 1009203
22:00+25w128776 0.1 1011143